Temp
14 13 13 13 14 14 14 14 14 14 14 13 13 13 13 12 13 13 13 13 13 13 13 13 13 14 13 13 13 12 12 12 13 13 13 13 13 13 13 13 12 12
14 13 13 14 14 14 14 14 14 13 13 13 13 13 13 12 12 12 13 13 13 13 13 13 13 13 13 12 13 13 12 12 13 13 13 13 13 13 13 13 12 12
13 13 13 13 13 14 13 13 13 13 13 13 13 13 12 12 12 12 13 13 12 13 13 13 13 13 13 12 12 13 12 12 13 13 13 13 13 13 13 13 13 12
14 14 13 13 14 14 14 13 13 13 13 13 13 12 12 13 12 12 13 12 12 12 13 13 13 13 13 12 12 13 12 12 12 13 13 13 13 13 13 13 13 12
14 14 14 13 14 14 14 13 13 13 13 13 12 12 12 13 12 12 12 12 12 12 12 12 13 13 13 12 12 12 12 12 12 12 13 13 13 13 13 13 13 13
14 14 14 13 14 14 14 13 13 13 12 13 13 13 12 12 12 12 12 12 12 12 12 12 12 12 12 12 11 12 12 12 12 12 12 12 12 12 12 13 13 13
14 14 14 13 13 13 13 13 13 12 12 13 13 12 12 12 12 12 12 12 12 12 12 12 12 12 12 12 12 12 12 12 12 12 12 12 12 12 12 12 12 12
14 14 14 13 13 13 13 12 12 12 13 14 13 12 12 12 12 12 12 12 12 12 12 12 12 12 12 12 12 11 11 12 12 12 12 12 12 12 12 12 12 12
14 14 13 13 13 14 13 12 12 13 13 13 13 12 12 12 12 12 12 12 12 12 12 12 12 11 11 12 12 12 12 12 12 12 12 12 12 12 12 12 12 12
13 13 13 13 13 13 13 12 13 13 13 13 12 12 12 12 12 12 12 12 12 12 12 12 12 12 11 12 12 12 12 12 12 12 12 12 12 13 13 12 12 12
13 13 13 13 13 13 12 12 12 12 12 12 12 12 11 11 12 12 12 12 12 12 12 12 12 12 12 12 12 12 12 12 12 12 12 12 12 12 13 12 12 12
13 12 13 13 12 12 12 12 12 12 12 12 11 11 11 11 12 12 12 12 12 12 12 12 12 12 12 12 12 12 12 12 12 12 12 12 12 12 12 12 12 12
13 12 13 13 12 12 12 12 12 11 12 12 11 11 11 11 12 12 12 12 12 12 12 12 12 12 12 12 12 12 12 12 12 12 12 12 12 12 12 12 12 12
12 12 12 12 12 12 12 12 11 11 11 11 11 11 11 12 12 12 12 12 12 12 12 12 12 12 12 12 12 12 11 11 11 11 12 12 12 12 12 12 12 12
12 12 12 12 12 11 11 11 11 11 11 11 11 11 11 11 11 11 12 12 12 12 11 11 11 11 11 11 12 12 11 11 11 11 12 12 12 12 12 12 12 11
12 12 12 11 12 12 11 11 11 11 11 11 11 11 11 11 11 11 11 11 11 11 11 11 11 11 11 11 11 11 11 11 11 11 12 12 12 12 12 12 12 11
12 12 11 11 12 11 11 11 11 10 10 10 11 11 11 11 11 11 11 11 11 10 10 11 11 11 11 11 11 11 11 11 11 11 11 12 12 12 12 12 12 11
11 11 11 11 11 10 10 10 10 10 10 10 10 10 10 10 11 11 11 11 11 11 11 11 11 10 11 11 11 11 11 11 11 11 11 11 12 12 12 12 12 11
10 10 10 10 10 10 10 10 10 11 10 10 10 10 10 10 10 11 11 11 11 11 11 11 11 11 11 10 11 11 11 11 11 11 11 11 11 12 12 12 12 11
10 10 10 10 10 10 9 10 10 10 10 10 10 10 10 10 10 10 10 10 10 11 11 11 11 11 11 11 11 11 11 11 11 11 11 11 11 11 11 11 11 11
9 9 9 9 9 9 9 9 9 10 10 10 10 10 10 9 10 10 10 9 10 11 11 11 11 11 11 11 11 11 11 11 11 10 10 11 11 10 10 10 10 10
9 9 9 9 9 9 9 9 9 10 10 10 10 10 10 9 9 9 9 9 10 10 11 11 11 11 10 10 11 11 10 10 10 10 10 10 10 10 10 10 10 10
8 9 9 9 9 9 10 9 9 9 9 9 9 9 9 9 9 9 9 10 10 10 10 10 10 10 10 10 10 10 10 10 10 10 10 10 10 10 10 10 10 10
8 8 9 9 9 9 9 9 9 9 9 8 9 9 9 9 9 9 9 9 10 10 10 10 10 10 10 10 10 10 10 10 10 10 10 10 10 10 10 10 10 10
7 8 8 8 8 8 8 8 8 8 8 8 8 8 8 8 8 9 9 9 9 9 9 9 9 9 9 9 9 9 10 10 9 9 9 9 10 10 10 10 10 10
7 7 7 7 7 7 7 7 7 7 8 8 8 8 8 8 8 8 9 9 9 9 9 9 9 9 9 9 9 9 10 10 10 10 10 10 10 10 10 10 10 10
Height
1515 1518 1518 1518 1519 1520 1522 1524 1526 1528 1529 1531 1532 1533 1533 1534 1534 1535 1537 1538 1539 1541 1542 1543 1543 1544 1545 1545 1546 1547 1547 1547 1548 1548 1548 1549 1550 1550 1551 1552 1553 1554
1514 1516 1517 1518 1519 1520 1522 1524 1526 1528 1529 1531 1532 1533 1533 1533 1534 1535 1536 1537 1539 1540 1541 1542 1543 1544 1545 1546 1546 1547 1547 1547 1547 1548 1548 1549 1549 1550 1551 1552 1552 1553
1512 1515 1516 1518 1519 1520 1522 1524 1526 1528 1529 1531 1532 1533 1533 1533 1534 1535 1536 1537 1538 1539 1540 1542 1543 1544 1545 1546 1546 1546 1547 1547 1547 1547 1548 1549 1549 1550 1551 1552 1552 1553
1511 1513 1516 1517 1518 1520 1522 1523 1526 1528 1529 1530 1531 1532 1533 1533 1534 1534 1535 1537 1538 1539 1540 1541 1542 1543 1545 1546 1546 1546 1547 1547 1547 1547 1548 1548 1549 1550 1550 1551 1552 1552
1511 1512 1514 1516 1517 1519 1522 1523 1526 1527 1528 1529 1531 1532 1532 1533 1534 1535 1536 1537 1538 1539 1540 1541 1542 1543 1544 1545 1546 1546 1547 1547 1547 1548 1548 1549 1549 1550 1550 1550 1551 1552
1510 1512 1514 1516 1517 1520 1522 1524 1526 1527 1528 1529 1530 1532 1532 1533 1535 1535 1536 1538 1539 1539 1540 1541 1542 1543 1544 1545 1545 1546 1546 1547 1547 1548 1548 1549 1549 1550 1550 1550 1551 1552
1510 1511 1513 1516 1518 1521 1522 1524 1525 1527 1528 1529 1530 1532 1533 1534 1535 1536 1537 1538 1539 1540 1541 1542 1542 1543 1543 1544 1545 1545 1546 1547 1548 1548 1549 1549 1549 1550 1550 1550 1551 1551
1509 1510 1513 1516 1518 1520 1522 1524 1525 1527 1528 1529 1530 1532 1533 1535 1536 1536 1537 1538 1539 1541 1542 1542 1543 1543 1543 1544 1545 1545 1546 1547 1548 1549 1550 1550 1549 1550 1550 1550 1551 1551
1508 1510 1513 1515 1517 1520 1522 1523 1525 1526 1528 1529 1530 1532 1533 1535 1536 1537 1538 1538 1539 1541 1542 1542 1543 1543 1543 1544 1545 1545 1546 1547 1548 1549 1550 1550 1550 1551 1551 1551 1551 1551
1507 1510 1512 1514 1517 1519 1521 1523 1525 1526 1528 1529 1530 1532 1533 1535 1536 1536 1538 1538 1540 1541 1542 1542 1543 1543 1544 1544 1545 1546 1546 1547 1548 1549 1549 1550 1550 1551 1551 1551 1550 1551
1507 1510 1512 1514 1517 1519 1521 1523 1524 1526 1528 1529 1530 1532 1533 1534 1535 1536 1538 1538 1539 1541 1542 1542 1543 1543 1544 1544 1545 1546 1546 1547 1548 1549 1549 1550 1550 1551 1551 1551 1550 1551
1505 1509 1512 1514 1517 1519 1521 1522 1524 1526 1528 1529 1531 1532 1533 1534 1535 1536 1538 1539 1540 1541 1542 1543 1543 1543 1544 1544 1545 1546 1546 1547 1548 1549 1550 1550 1550 1551 1551 1551 1550 1550
1503 1507 1511 1515 1517 1519 1520 1522 1524 1526 1528 1529 1530 1532 1533 1534 1535 1536 1537 1539 1540 1541 1542 1542 1543 1544 1544 1545 1545 1546 1546 1547 1548 1549 1549 1550 1551 1551 1551 1551 1550 1550
1502 1507 1511 1515 1517 1519 1521 1522 1524 1525 1527 1529 1530 1531 1533 1534 1535 1536 1538 1539 1540 1541 1542 1542 1543 1543 1543 1544 1545 1546 1546 1547 1547 1548 1549 1550 1550 1551 1551 1551 1551 1551
1503 1507 1512 1516 1517 1519 1521 1522 1523 1525 1526 1528 1529 1531 1533 1534 1535 1537 1538 1539 1540 1541 1542 1541 1541 1542 1542 1543 1544 1544 1546 1547 1547 1548 1549 1550 1550 1551 1551 1552 1552 1551
1505 1508 1512 1515 1516 1518 1520 1521 1523 1524 1525 1527 1529 1531 1533 1534 1535 1537 1538 1539 1540 1540 1540 1540 1540 1541 1542 1543 1543 1543 1545 1546 1547 1548 1549 1550 1551 1551 1552 1552 1552 1551
1505 1509 1512 1514 1515 1517 1520 1521 1522 1524 1525 1527 1529 1531 1532 1534 1535 1537 1538 1538 1539 1539 1539 1539 1540 1541 1542 1542 1543 1543 1544 1545 1547 1548 1549 1549 1550 1551 1552 1552 1552 1552
1505 1508 1510 1512 1514 1516 1518 1519 1520 1522 1523 1525 1527 1529 1531 1533 1534 1535 1536 1537 1537 1538 1539 1540 1540 1541 1542 1542 1543 1544 1544 1545 1547 1548 1549 1549 1550 1551 1552 1552 1552 1552
1504 1505 1506 1508 1510 1513 1515 1517 1519 1521 1522 1524 1527 1529 1531 1532 1533 1534 1535 1536 1538 1539 1540 1540 1541 1541 1542 1542 1543 1544 1545 1545 1547 1548 1549 1550 1550 1551 1551 1551 1552 1552
1503 1505 1507 1508 1509 1511 1514 1517 1519 1521 1523 1525 1527 1529 1530 1531 1532 1534 1535 1536 1537 1539 1540 1540 1541 1541 1542 1543 1543 1544 1545 1546 1547 1548 1549 1550 1550 1550 1551 1551 1551 1552
1504 1507 1509 1510 1511 1512 1515 1518 1520 1521 1523 1524 1526 1528 1530 1531 1533 1534 1534 1536 1537 1538 1539 1540 1541 1542 1542 1543 1544 1544 1545 1546 1546 1547 1548 1549 1549 1550 1550 1551 1551 1551
1506 1508 1510 1511 1512 1514 1517 1519 1521 1522 1524 1525 1526 1528 1530 1531 1532 1533 1534 1535 1537 1538 1539 1540 1541 1541 1542 1543 1543 1544 1545 1546 1546 1547 1548 1548 1549 1549 1549 1550 1551 1551
1508 1509 1511 1512 1514 1516 1518 1519 1521 1522 1524 1524 1526 1528 1529 1530 1532 1533 1534 1535 1536 1537 1538 1539 1540 1541 1541 1542 1543 1544 1544 1545 1546 1547 1547 1548 1548 1548 1549 1549 1549 1549
1509 1510 1511 1513 1514 1516 1518 1519 1521 1522 1523 1524 1526 1528 1529 1531 1532 1533 1534 1535 1535 1537 1538 1538 1539 1540 1541 1541 1542 1543 1543 1544 1545 1547 1547 1548 1548 1548 1548 1548 1548 1547
1510 1511 1513 1514 1515 1516 1518 1520 1521 1522 1524 1526 1527 1528 1529 1531 1532 1533 1533 1534 1535 1536 1537 1537 1538 1539 1540 1541 1541 1542 1543 1543 1544 1546 1546 1546 1547 1547 1547 1548 1547 1545
1512 1513 1515 1516 1516 1517 1518 1520 1522 1523 1524 1526 1527 1528 1529 1530 1531 1532 1533 1534 1535 1536 1536 1537 1538 1538 1539 1540 1540 1541 1542 1542 1543 1544 1544 1544 1545 1545 1546 1546 1546 1544
Wind_Speed
24 22 21 21 21 22 21 18 18 16 14 12 11 11 10 10 11 11 11 11 11 10 9 9 9 9 8 7 8 8 8 9 10 10 11 10 11 11 11 11 12 11
24 22 21 21 20 21 20 18 17 16 13 12 11 11 10 11 12 11 12 11 10 11 10 9 9 9 8 7 8 8 8 9 9 8 8 9 10 11 10 10 11 11
22 21 21 21 21 22 20 19 18 15 13 12 11 11 11 12 12 11 13 12 9 11 10 10 10 10 8 7 9 9 8 9 8 7 7 7 8 9 8 9 9 10
22 22 22 21 23 25 23 22 20 16 15 14 13 12 11 12 12 11 13 12 10 11 11 9 9 9 8 7 9 9 8 8 8 6 6 7 7 8 7 8 7 8
25 24 24 23 24 25 24 22 19 17 16 15 13 12 11 12 12 11 12 11 9 10 10 9 9 9 8 7 7 7 7 8 8 7 7 7 7 7 7 7 7 8
26 25 25 23 23 24 23 20 18 17 16 15 13 11 11 11 11 10 11 10 9 9 9 8 8 8 9 7 6 8 8 7 8 8 8 7 8 8 8 8 7 8
27 27 26 22 21 24 23 19 18 17 15 14 13 11 11 11 10 10 10 10 10 10 9 8 7 7 8 6 5 7 6 6 7 7 6 6 7 7 8 8 8 9
29 28 26 22 23 26 22 19 19 18 16 14 12 11 10 10 10 10 10 9 10 10 9 8 7 7 7 6 5 5 5 5 5 5 5 6 6 5 6 7 8 8
30 27 25 25 26 26 22 20 20 18 16 14 12 12 11 10 10 10 10 9 10 10 10 8 7 7 7 7 6 6 6 5 5 5 6 6 5 4 5 6 6 7
29 26 24 25 27 25 21 20 19 17 17 15 12 12 11 11 11 10 9 10 10 10 10 9 8 7 7 7 7 7 6 6 5 5 6 5 4 4 5 6 6 7
28 25 24 25 26 24 21 19 19 18 16 15 13 12 11 11 11 10 9 10 10 10 9 8 7 7 7 7 7 7 7 7 6 6 6 6 5 5 5 5 6 8
30 25 25 26 25 24 22 20 19 17 16 15 13 12 12 11 11 10 10 9 10 9 8 7 7 7 7 7 7 7 7 7 7 7 7 6 5 5 4 4 6 8
31 27 27 27 24 22 22 20 18 17 16 14 13 12 12 11 11 10 10 9 9 9 8 7 7 6 7 7 7 7 7 7 8 8 7 7 6 5 4 2 4 7
31 28 28 26 23 22 21 19 18 18 16 14 14 13 12 11 11 10 10 9 9 9 8 7 7 7 8 9 8 7 7 7 7 7 7 7 6 5 5 3 2 5
28 29 27 26 25 23 21 20 19 18 17 16 16 14 13 12 11 11 10 10 10 9 8 9 11 12 13 13 12 10 7 6 6 7 7 7 7 6 5 4 2 4
27 29 29 28 27 23 21 20 19 18 18 18 17 15 13 13 12 11 10 9 10 9 10 13 15 15 14 14 14 13 9 6 6 6 6 7 7 7 7 6 5 5
28 28 28 29 27 23 21 20 18 18 18 17 16 15 13 12 11 10 10 11 11 9 10 12 12 12 13 14 14 14 12 8 5 5 6 6 7 8 7 7 6 6
27 27 27 27 24 22 22 22 22 22 21 20 19 18 16 14 13 13 14 14 13 10 9 9 8 8 8 9 10 11 11 9 5 4 6 6 6 7 6 7 8 7
29 29 29 29 28 25 24 24 25 25 23 23 21 19 17 14 14 16 16 13 10 10 10 9 8 7 6 6 6 6 8 8 5 3 5 5 6 6 6 6 7 7
28 28 27 27 28 27 24 25 25 23 22 21 18 17 15 11 11 14 14 11 10 10 10 8 7 7 6 6 6 5 6 7 6 4 5 5 5 6 6 6 6 6
24 23 22 22 22 22 21 23 24 22 19 18 17 16 13 12 13 14 13 13 12 11 10 9 8 7 6 6 6 5 6 5 5 5 5 5 5 6 6 6 6 6
20 19 19 19 19 18 16 17 19 19 16 15 17 17 14 15 16 16 14 14 13 12 11 9 8 8 7 7 7 6 6 6 6 5 5 5 6 6 6 6 7 8
16 16 17 16 17 17 15 13 14 15 15 15 17 16 14 15 16 15 14 14 12 11 10 9 9 9 8 8 7 7 7 7 5 4 5 6 6 7 6 5 8 11
13 13 14 15 16 17 16 14 13 14 15 16 16 16 15 14 13 12 12 11 10 10 10 10 10 10 9 9 9 8 9 9 6 3 4 5 5 7 6 6 10 14
14 14 15 16 17 16 16 16 15 15 16 15 15 14 13 13 12 11 11 10 9 9 9 9 9 9 9 8 7 7 8 8 7 4 4 6 6 6 6 6 10 15
14 14 14 15 16 16 15 15 15 14 14 14 13 12 11 11 10 9 8 8 8 8 7 7 7 7 7 6 7 7 7 8 10 9 10 11 11 11 10 8 9 15
Wind_Direction
186 186 176 171 170 164 162 164 166 167 167 167 171 172 172 178 183 183 184 186 186 189 195 200 211 218 212 209 209 205 212 223 225 229 230 218 209 218 223 214 213 213
181 181 172 167 166 163 163 165 165 165 162 164 168 164 169 178 177 180 182 181 187 190 190 193 204 218 215 217 225 209 209 230 229 229 233 216 211 221 220 219 219 210
180 177 171 167 167 165 164 165 164 162 161 164 165 163 176 184 178 180 178 173 184 189 185 188 198 209 206 219 235 218 211 230 225 220 223 210 212 220 216 217 218 212
181 177 172 171 175 174 170 167 164 162 164 166 165 169 185 190 181 177 173 169 181 185 183 191 199 203 202 220 235 218 207 220 220 218 217 209 210 216 222 222 219 218
181 177 173 175 181 180 173 165 163 167 170 168 167 174 187 187 178 171 168 168 179 183 182 192 202 203 204 217 227 216 209 211 214 215 211 214 213 215 231 231 224 221
181 178 178 179 181 180 173 164 164 169 170 167 168 174 180 177 169 167 168 169 177 180 179 187 199 205 206 213 217 217 215 209 215 215 209 220 219 215 228 226 224 225
182 179 179 179 179 177 172 167 166 168 168 167 165 169 173 169 166 170 170 171 176 178 177 182 191 197 198 201 207 214 211 205 217 216 208 226 224 218 225 218 216 223
182 180 178 178 179 177 173 169 169 169 171 170 166 168 169 167 172 176 172 173 176 177 179 182 186 188 185 184 191 196 190 190 204 204 203 222 223 218 225 218 211 213
179 177 179 181 183 181 175 171 171 171 172 171 169 169 167 170 179 178 174 176 175 177 180 180 180 180 176 177 184 185 183 185 188 187 194 205 208 208 218 221 212 203
175 176 181 182 182 182 177 172 174 175 173 171 171 170 169 176 181 178 177 178 175 177 179 176 178 178 172 174 181 184 186 189 187 185 185 187 193 201 213 225 212 199
176 178 180 180 179 180 177 174 177 178 174 170 170 172 174 177 176 175 179 179 176 178 178 176 177 175 171 173 175 179 183 186 186 184 183 184 193 198 205 227 215 200
178 179 178 178 178 179 179 177 176 177 174 170 171 173 175 175 173 174 178 179 177 177 177 178 177 173 175 177 176 177 179 184 184 182 186 188 195 199 203 237 224 202
178 177 179 181 179 181 182 177 174 175 173 170 173 176 174 171 172 174 176 175 174 176 177 175 170 168 173 174 179 182 180 185 187 185 188 188 191 201 206 246 235 205
178 173 178 183 182 180 177 173 175 176 170 167 170 172 170 168 168 169 170 170 172 174 173 168 166 173 176 172 176 183 182 187 191 190 197 197 194 201 208 230 238 206
177 174 180 187 188 183 175 173 175 169 162 165 166 163 162 162 160 159 160 163 166 163 162 170 180 186 183 173 169 170 174 188 194 193 203 211 208 208 213 220 219 209
179 178 184 189 190 184 176 174 173 166 165 168 164 158 157 156 155 154 154 155 156 162 178 189 192 192 188 178 169 161 157 172 195 195 200 211 212 214 218 212 208 227
186 184 187 189 186 180 172 166 163 160 159 158 156 155 154 152 152 153 156 163 169 179 193 193 190 190 189 185 178 170 160 154 169 196 198 203 207 211 217 210 206 231
183 184 185 182 174 168 165 165 165 164 161 160 163 163 156 153 161 168 174 183 186 185 179 173 171 172 175 179 181 184 181 165 153 191 199 199 205 208 214 211 206 219
178 178 176 174 171 169 169 173 175 173 170 169 169 167 161 159 169 180 186 189 187 181 175 174 173 165 162 168 169 177 183 168 153 187 202 195 203 209 213 208 203 210
173 173 174 177 179 180 179 178 175 168 167 169 168 167 170 176 188 195 196 192 191 191 187 184 182 176 174 175 167 166 174 169 163 180 196 200 205 209 213 210 208 215
169 175 180 179 176 173 173 174 171 165 165 171 174 180 196 216 219 213 203 194 196 200 197 193 191 190 188 185 184 182 182 195 204 192 189 207 215 214 218 221 227 230
153 161 165 163 161 161 163 168 172 174 181 191 196 204 215 214 206 202 197 193 193 195 197 199 199 200 202 203 207 202 194 213 233 224 217 226 226 226 225 228 235 232
148 158 163 166 171 177 185 190 188 192 201 202 198 199 200 194 192 194 195 193 193 194 198 204 205 208 212 211 213 214 213 220 232 244 251 246 246 249 243 236 247 243
156 169 172 174 175 178 185 188 184 184 186 181 177 178 181 185 190 194 197 200 204 205 208 213 214 215 218 218 220 222 226 230 231 250 270 257 256 266 262 255 262 262
146 156 161 162 162 162 166 168 168 171 174 174 174 177 182 188 190 193 200 204 206 207 212 215 216 217 220 222 225 228 232 235 229 232 259 252 247 263 270 264 270 273
127 137 143 146 149 150 153 158 162 164 167 168 167 164 169 175 176 180 186 187 189 193 201 207 211 219 227 231 237 239 243 248 245 243 250 253 253 258 262 262 272 277